sat.trackr.live / text

‹ back to catalog

STARLINK-1578

NORAD 46082 · 2020-055BH

PAYLOAD ACTIVE UNKNOWN

§ Identity

Operator
Country
US
Launch date
2020-08-07
Launch site
AFETR
Launch vehicle
Mass (kg)
RCS (m²)

Purposes: comms

External: N2YO · Heavens-Above · Gunter

§ Orbital elements

Epoch: 2026-09-20T00:15:31.963968Z

Period
94.01 min
Inclination
53.1598°
Eccentricity
0.0001161
Mean motion
15.31699553 rev/d
Perigee alt
469.9 km
Apogee alt
471.5 km
Semi-major
6,848.9 km
B*
2.3178e-5
RAAN
277.3247°
Arg perigee
105.0506°
Mean anomaly
255.0624°
Rev number
33,900

§ Raw data

STARLINK-15781 46082U 20055BH  26263.01078662  .00000354  00000+0  23178-4 0  99972 46082  53.1598 277.3247 0001161 105.0506 255.0624 15.31699553339007

JSON: /api/v1/satellites/46082 · /tle

For live sub-satellite position, see the globe view (requires WebGL).

§ Visibility from observer

Set your observer location to see the next 7 days of passes ≥ 10°. The values pass through the URL so the page stays shareable.

No JS? Fill the form by hand. The geolocation button needs JavaScript.